Location: Newark
(40.9833°N, 0.0333°W)
Time: 08:23:37
(UTC+00:00)

Transit 4A - Pass Details

Date: 31 October 2020
Orbit: 862 x 982 km, 66.8° (Epoch: 28 November)

Event Time Altitude Azimuth Distance (km) Brightness Sun altitude
Rises 00:35:23 0° 321° (NW) 3,688 - -60.9°
Reaches altitude 10° 00:38:14 10° 312° (NW) 2,729 - -60.7°
Maximum altitude 00:43:45 32° 252° (WSW) 1,595 - -60.2°
Drops below altitude 10° 00:49:10 10° 192° (SSW) 2,662 - -59.7°
Sets 00:51:55 0° 182° (S) 3,584 - -59.4°
